EST,Max TemperatureF,Mean TemperatureF,Min TemperatureF,Max Dew PointF,MeanDew PointF,Min DewpointF,Max Humidity, Mean Humidity, Min Humidity, Max Sea Level PressureIn, Mean Sea Level PressureIn, Min Sea Level PressureIn, Max VisibilityMiles, Mean VisibilityMiles, Min VisibilityMiles, Max Wind SpeedMPH, Mean Wind SpeedMPH, Max Gust SpeedMPH,PrecipitationIn, CloudCover, Events, WindDirDegrees
2013-2-1,27,17,7,25,8,0,92,73,53,30.44,30.08,29.75,10,5,0,29,10,40,0.10,6,Fog-Snow,294
2013-2-2,27,17,7,25,17,1,92,66,40,30.40,30.08,29.93,10,4,0,16,6,25,0.15,7,Fog-Snow,224
2013-2-3,27,24,20,25,20,13,92,80,68,30.14,29.91,29.80,10,4,0,26,12,36,0.05,8,Fog-Snow,277
2013-2-4,40,30,19,28,19,12,77,63,48,30.16,30.02,29.86,10,10,7,20,8,25,T,7,Snow,252
2013-2-5,42,39,35,32,29,24,82,71,59,29.96,29.90,29.83,10,10,10,20,8,25,T,8,,249
2013-2-6,45,38,30,30,27,24,82,64,45,30.28,30.16,29.97,10,10,9,21,6,26,0.00,4,,320
2013-2-7,43,38,33,34,28,22,85,69,52,30.27,30.16,29.97,10,10,10,16,10,25,0.00,3,,140
2013-2-8,42,35,28,38,30,22,92,82,72,30.22,29.99,29.86,10,9,5,26,12,36,0.03,8,Rain,303
2013-2-9,40,31,22,21,16,11,75,53,30,30.40,30.33,30.15,10,10,10,20,8,25,0.00,4,,324
2013-2-10,51,42,32,34,18,11,79,53,26,30.35,30.23,30.05,10,10,10,23,12,32,0.01,3,Rain,146
2013-2-11,58,49,39,48,36,15,83,56,28,30.02,29.94,29.88,10,10,9,28,14,37,0.01,4,Rain,228
2013-2-12,50,41,32,23,20,14,64,44,24,30.13,30.05,29.95,10,10,10,18,7,23,0.00,0,,295
2013-2-13,41,36,30,37,29,19,92,68,44,29.91,29.72,29.56,10,6,1,17,7,23,0.31,8,Rain-Snow,297
2013-2-14,46,37,28,28,25,21,92,69,45,30.04,29.98,29.87,10,10,5,16,8,21,T,4,Snow,242
2013-2-15,48,38,27,33,29,26,92,75,58,30.10,30.01,29.95,10,6,0,16,6,23,0.11,6,Fog-Snow,293
2013-2-16,29,24,18,27,19,12,92,76,60,30.03,29.93,29.85,10,5,1,17,9,24,0.02,7,Snow,326
2013-2-17,21,16,11,12,6,0,84,67,49,30.32,30.06,29.89,10,6,0,22,10,30,0.02,7,Fog-Snow,315
2013-2-18,50,29,8,28,16,2,73,57,41,30.37,30.24,30.02,10,10,10,16,7,28,0.00,0,,184
2013-2-19,45,37,28,36,26,11,85,64,43,30.01,29.90,29.78,10,9,3,29,13,39,0.13,6,Rain-Snow,221
2013-2-20,30,25,19,12,10,9,62,54,46,30.26,30.14,30.02,10,10,10,23,12,32,T,2,,296
2013-2-21,37,25,13,15,12,8,88,62,35,30.34,30.26,30.16,10,10,10,17,6,23,0.00,1,,6
2013-2-22,42,37,32,35,29,13,96,66,35,30.21,30.08,29.99,10,9,2,25,14,36,0.12,6,Rain,139
2013-2-23,58,47,35,41,36,30,92,66,40,30.03,29.92,29.83,10,10,9,13,5,17,0.00,4,,34
2013-2-24,45,36,26,29,23,18,85,62,39,30.13,29.99,29.86,10,10,10,18,8,30,0.00,2,,317
2013-2-25,45,33,20,23,20,17,92,67,41,30.17,30.11,30.03,10,10,8,17,6,24,0.00,0,,125
2013-2-26,41,36,31,38,30,18,92,73,54,30.04,29.72,29.52,10,9,4,38,19,53,0.12,7,Rain,131
2013-2-27,41,36,31,36,31,28,92,78,64,29.78,29.69,29.57,10,6,1,18,9,26,0.19,8,Rain-Snow,254
2013-2-28,31,29,27,28,25,19,92,81,69,29.91,29.75,29.66,10,5,1,20,10,28,0.05,8,Rain-Snow,279